This demonstration page uses our WeatherBlox Daily Observations layout. Learn more.

38.89511, -77.03637

Hourly Observations for April 21, 2015

Temp ( °F °C ) Dew Point ( °F °C ) Humidity (%) Winds ( mph kmh ) Pressure ( in mb ) Visibility ( mi km ) Precip ( " mm )
12:52 am 00:52 Cloudy 66 19 57 14 73 73 NW 8 13 29.59 1002 10 16.09344 0 0
12:56 am 00:56 Cloudy with Thunderstorms 66 19 57 14 73 73 NW 10 17 29.59 1002 10 16.09344 0 0
1:18 am 01:18 Cloudy with Light Thunderstorms 66 19 54 12 64 64 NNW 10 17 29.59 1002 7 11.265408 0 0
1:52 am 01:52 Cloudy with Thunderstorms 63 17 55 13 77 77 N 5 7 29.62 1003 10 16.09344 0.15 3.81
2:52 am 02:52 Cloudy 63 17 57 14 83 83 WSW 3 6 29.62 1003 10 16.09344 0.001 0.001
3:52 am 03:52 Mostly Cloudy 63 17 55 13 77 77 NW 13 20 29.65 1004 10 16.09344 0.001 0.001
4:52 am 04:52 Cloudy with Light Rain 61 16 46 8 59 59 NW 18 30 29.68 1005 10 16.09344 0.001 0.001
5:52 am 05:52 Cloudy 61 16 41 5 48 48 WNW 20 31 29.71 1006 10 16.09344 0.001 0.001
6:52 am 06:52 Mostly Cloudy 57 14 37 3 48 48 NW 14 22 29.74 1007 10 16.09344 0 0
7:52 am 07:52 Mostly Sunny 59 15 37 3 45 45 WNW 12 19 29.77 1008 10 16.09344 0 0
8:52 am 08:52 Mostly Sunny 61 16 36 2 39 39 W 17 28 29.77 1008 10 16.09344 0.01 0.254
9:52 am 09:52 Mostly Sunny 63 17 32 0 32 32 WNW 25 41 29.8 1009 10 16.09344 0 0
10:52 am 10:52 Mostly Sunny 64 18 36 2 34 34 NW 20 31 29.8 1009 10 16.09344 0 0
11:52 am 11:52 Mostly Sunny 64 18 36 2 34 34 WNW 16 26 29.8 1009 10 16.09344 0 0
12:52 pm 12:52 Mostly Sunny 66 19 34 1 30 30 WNW 10 17 29.77 1008 10 16.09344 0 0
1:52 pm 13:52 Mostly Sunny 66 19 34 1 30 30 N 6 9 29.77 1008 10 16.09344 0 0
2:52 pm 14:52 Mostly Sunny 68 20 36 2 30 30 N 5 7 29.74 1007 10 16.09344 0 0
3:52 pm 15:52 Partly Cloudy 70 21 30 -1 23 23 WSW 16 26 29.74 1007 10 16.09344 0 0
4:52 pm 16:52 Mostly Cloudy 70 21 30 -1 23 23 W 12 19 29.74 1007 10 16.09344 0 0
5:52 pm 17:52 Partly Cloudy 70 21 30 -1 23 23 WSW 14 22 29.74 1007 10 16.09344 0 0
6:52 pm 18:52 Mostly Cloudy 68 20 28 -2 23 23 W 10 17 29.74 1007 10 16.09344 0 0
7:52 pm 19:52 Mostly Cloudy 66 19 30 -1 26 26 NNW 13 20 29.77 1008 10 16.09344 0 0
8:52 pm 20:52 Mostly Cloudy 64 18 28 -2 26 26 NW 6 9 29.8 1009 10 16.09344 0 0
9:52 pm 21:52 Mostly Clear 63 17 32 0 32 32 WSW 3 6 29.8 1009 10 16.09344 0 0
10:52 pm 22:52 Clear 57 14 36 2 44 44 SSW 6 9 29.8 1009 10 16.09344 0 0
11:52 pm 23:52 Clear 57 14 37 3 48 48 SSW 3 6 29.83 1010 10 16.09344 0 0

Powered by AerisWeather